TimeAKDT,TemperatureF,Dew PointF,Humidity,Sea Level PressureIn,VisibilityMPH,Wind Direction,Wind SpeedMPH,Gust SpeedMPH,PrecipitationIn,Events,Conditions,WindDirDegrees,DateUTC
12:53 AM,46.0,39.9,79,29.82,10.0,South,11.5,-,N/A,,Clear,170,2013-09-05 08:53:00
1:53 AM,45.0,39.9,82,29.85,10.0,SSE,10.4,-,N/A,,Clear,160,2013-09-05 09:53:00
2:53 AM,45.0,39.9,82,29.87,10.0,South,12.7,-,N/A,,Clear,170,2013-09-05 10:53:00
3:53 AM,45.0,41.0,86,29.88,10.0,SSE,11.5,-,N/A,,Clear,160,2013-09-05 11:53:00
4:53 AM,45.0,39.9,82,29.90,10.0,SSE,13.8,-,N/A,,Clear,160,2013-09-05 12:53:00
5:53 AM,45.0,39.9,82,29.92,10.0,South,12.7,-,N/A,,Clear,180,2013-09-05 13:53:00
6:53 AM,44.1,39.9,85,29.94,10.0,South,10.4,-,N/A,,Clear,170,2013-09-05 14:53:00
7:53 AM,45.0,39.9,82,29.95,10.0,SSE,11.5,-,N/A,,Clear,160,2013-09-05 15:53:00
8:53 AM,48.9,39.9,71,29.96,10.0,SSE,15.0,23.0,N/A,,Clear,160,2013-09-05 16:53:00
9:53 AM,50.0,41.0,71,29.97,10.0,SSE,15.0,20.7,N/A,,Clear,160,2013-09-05 17:53:00
10:53 AM,50.0,41.0,71,29.99,10.0,SSE,13.8,-,N/A,,Clear,160,2013-09-05 18:53:00
11:53 AM,53.1,39.0,59,29.99,10.0,SSE,13.8,-,N/A,,Clear,160,2013-09-05 19:53:00
12:53 PM,54.0,39.0,57,30.01,10.0,SSE,13.8,-,N/A,,Partly Cloudy,150,2013-09-05 20:53:00
1:53 PM,55.9,37.0,49,30.01,10.0,SSE,18.4,24.2,N/A,,Clear,160,2013-09-05 21:53:00
2:53 PM,55.9,37.9,51,30.02,10.0,SSE,13.8,23.0,N/A,,Overcast,160,2013-09-05 22:53:00
3:53 PM,57.0,37.9,49,30.01,10.0,SSE,16.1,24.2,N/A,,Scattered Clouds,160,2013-09-05 23:53:00
4:53 PM,57.0,36.0,45,30.02,10.0,SSE,12.7,-,N/A,,Clear,160,2013-09-06 00:53:00
5:53 PM,55.9,37.9,51,30.01,10.0,SSE,10.4,-,N/A,,Clear,150,2013-09-06 01:53:00
6:53 PM,54.0,39.0,57,30.01,10.0,SSE,10.4,-,N/A,,Clear,160,2013-09-06 02:53:00
7:53 PM,53.1,37.9,57,30.02,10.0,SE,10.4,-,N/A,,Clear,140,2013-09-06 03:53:00
8:53 PM,52.0,37.9,59,30.02,10.0,SSE,9.2,-,N/A,,Clear,150,2013-09-06 04:53:00
9:53 PM,50.0,37.0,61,30.03,10.0,SSE,9.2,-,N/A,,Clear,160,2013-09-06 05:53:00
10:53 PM,48.0,37.9,68,30.03,10.0,SSE,9.2,-,N/A,,Clear,160,2013-09-06 06:53:00
11:53 PM,45.0,37.0,74,30.05,10.0,SSE,8.1,-,N/A,,Clear,160,2013-09-06 07:53:00